SXEBL ORER-LTBA

Flight info

Callsign SXEBL
Flight time 3h 0m
Altitude 280
Route ROXOP EMIDO KABAN UL718 ULSAB UL614 BAG TOKER YAA
Aircraft A320/M-L/5111

Departure

Time 2026-05-08 13:11
Airport Erbil International Airport (ORER)

Arrival

Time 2026-05-08 16:11
Airport İstanbul Atatürk Airport (LTBA)
Time Latitude Longitude Altitude Speed Heading
2026-05-08 12:43 36.23035 43.95377 1356 ft 0 kts 90°
2026-05-08 13:03 36.23035 43.95373 1356 ft 2 kts 90°
2026-05-08 13:03 36.23035 43.95353 1356 ft 3 kts 90°
2026-05-08 13:03 36.23035 43.95329 1356 ft 3 kts 90°
2026-05-08 13:03 36.23035 43.95316 1356 ft 1 kts 90°
2026-05-08 13:04 36.23033 43.95299 1356 ft 3 kts 60°
2026-05-08 13:04 36.23018 43.95285 1356 ft 3 kts 15°
2026-05-08 13:04 36.23010 43.95284 1356 ft 0 kts 360°
2026-05-08 13:05 36.23018 43.95283 1356 ft 4 kts 347°
2026-05-08 13:05 36.23020 43.95282 1356 ft 0 kts 345°
2026-05-08 13:05 36.23021 43.95282 1356 ft 0 kts 344°
2026-05-08 13:06 36.23022 43.95282 1356 ft 0 kts 344°
2026-05-08 13:06 36.23023 43.95281 1356 ft 0 kts 344°
2026-05-08 13:06 36.23024 43.95281 1356 ft 0 kts 344°
2026-05-08 13:07 36.23033 43.95277 1356 ft 4 kts 339°
2026-05-08 13:07 36.23051 43.95235 1356 ft 7 kts 269°
2026-05-08 13:07 36.23050 43.95158 1356 ft 11 kts 269°
2026-05-08 13:07 36.23049 43.95050 1356 ft 14 kts 269°
2026-05-08 13:08 36.23048 43.94932 1356 ft 12 kts 270°
2026-05-08 13:08 36.23007 43.94873 1356 ft 10 kts 176°
2026-05-08 13:08 36.22925 43.94877 1356 ft 13 kts 180°
2026-05-08 13:08 36.22823 43.94876 1356 ft 16 kts 181°
2026-05-08 13:09 36.22704 43.94874 1356 ft 18 kts 180°
2026-05-08 13:09 36.22599 43.94873 1356 ft 13 kts 180°
2026-05-08 13:09 36.22501 43.94873 1356 ft 15 kts 180°
2026-05-08 13:09 36.22425 43.94872 1356 ft 12 kts 186°
2026-05-08 13:10 36.22385 43.94816 1356 ft 9 kts 263°
2026-05-08 13:10 36.22376 43.94721 1356 ft 11 kts 263°
2026-05-08 13:10 36.22391 43.94653 1356 ft 9 kts 333°
2026-05-08 13:10 36.22456 43.94649 1356 ft 16 kts
2026-05-08 13:11 36.22855 43.94654 1356 ft 100 kts
2026-05-08 13:11 36.23792 43.94664 1515 ft 153 kts
2026-05-08 13:11 36.24807 43.94716 2103 ft 142 kts
2026-05-08 13:11 36.25803 43.94803 2618 ft 146 kts
2026-05-08 13:12 36.26858 43.94886 2986 ft 167 kts
2026-05-08 13:12 36.28154 43.94992 3062 ft 206 kts
2026-05-08 13:12 36.29676 43.95138 3225 ft 234 kts
2026-05-08 13:12 36.31371 43.95319 3496 ft 254 kts
2026-05-08 13:13 36.33166 43.95405 3750 ft 262 kts 358°
2026-05-08 13:13 36.35013 43.95297 4097 ft 267 kts 355°
2026-05-08 13:13 36.36902 43.95078 4712 ft 277 kts 349°
2026-05-08 13:13 36.38745 43.94341 5327 ft 282 kts 334°
2026-05-08 13:14 36.40468 43.93101 5945 ft 291 kts 324°
2026-05-08 13:14 36.42076 43.91512 6558 ft 298 kts 317°
2026-05-08 13:14 36.43577 43.89710 7170 ft 302 kts 313°
2026-05-08 13:14 36.44988 43.87801 7769 ft 297 kts 310°
2026-05-08 13:15 36.46321 43.85864 8368 ft 294 kts 308°
2026-05-08 13:15 36.47623 43.83899 8970 ft 295 kts 307°
2026-05-08 13:15 36.48898 43.81946 9564 ft 295 kts 306°
2026-05-08 13:15 36.50187 43.79959 10167 ft 296 kts 305°
2026-05-08 13:16 36.51475 43.77948 10768 ft 298 kts 304°
2026-05-08 13:16 36.52774 43.75926 11373 ft 302 kts 305°
2026-05-08 13:16 36.54104 43.73904 11972 ft 304 kts 306°
2026-05-08 13:16 36.55463 43.71862 12575 ft 305 kts 306°
2026-05-08 13:17 36.56798 43.69863 13171 ft 299 kts 307°
2026-05-08 13:17 36.58119 43.67881 13765 ft 294 kts 307°
2026-05-08 13:17 36.59413 43.65940 14358 ft 292 kts 307°
2026-05-08 13:17 36.60712 43.63984 14961 ft 293 kts 306°
2026-05-08 13:18 36.62076 43.62086 15559 ft 298 kts 314°
2026-05-08 13:18 36.63714 43.60523 16157 ft 304 kts 323°
2026-05-08 13:18 36.65579 43.59248 16763 ft 308 kts 330°
2026-05-08 13:18 36.67573 43.58202 17368 ft 314 kts 334°
2026-05-08 13:19 36.69579 43.57145 17967 ft 312 kts 326°
2026-05-08 13:19 36.71354 43.55600 18570 ft 309 kts 314°
2026-05-08 13:19 36.72770 43.53609 19170 ft 307 kts 301°
2026-05-08 13:19 36.73798 43.51281 19777 ft 306 kts 290°
2026-05-08 13:20 36.74476 43.48762 20383 ft 307 kts 282°
2026-05-08 13:20 36.74892 43.46153 20987 ft 308 kts 277°
2026-05-08 13:20 36.75137 43.43486 21593 ft 311 kts 274°
2026-05-08 13:20 36.75287 43.40787 22197 ft 314 kts 273°
2026-05-08 13:21 36.75389 43.38067 22798 ft 316 kts 272°
2026-05-08 13:21 36.75467 43.35305 23403 ft 319 kts 272°
2026-05-08 13:21 36.75533 43.32529 24001 ft 322 kts 272°
2026-05-08 13:21 36.75610 43.29725 24601 ft 325 kts 272°
2026-05-08 13:22 36.75696 43.26891 25134 ft 330 kts 272°
2026-05-08 13:22 36.75786 43.24049 25617 ft 334 kts 272°
2026-05-08 13:22 36.75882 43.21153 26096 ft 335 kts 272°
2026-05-08 13:22 36.75980 43.18240 26574 ft 336 kts 272°
2026-05-08 13:23 36.76080 43.15316 27051 ft 338 kts 272°
2026-05-08 13:23 36.76182 43.12382 27527 ft 340 kts 272°
2026-05-08 13:23 36.76287 43.09410 27875 ft 346 kts 272°
2026-05-08 13:23 36.76394 43.06399 27970 ft 346 kts 272°
2026-05-08 13:24 36.76503 43.03406 27989 ft 345 kts 272°
2026-05-08 13:24 36.76632 43.00420 27990 ft 345 kts 275°
2026-05-08 13:24 36.77047 42.97514 27989 ft 345 kts 283°
2026-05-08 13:24 36.77856 42.94687 27988 ft 347 kts 294°
2026-05-08 13:25 36.79143 42.92125 27988 ft 350 kts 306°
2026-05-08 13:25 36.80848 42.89937 27989 ft 354 kts 316°
2026-05-08 13:25 36.82848 42.88124 27987 ft 358 kts 324°
2026-05-08 13:25 36.85033 42.86611 27986 ft 360 kts 329°
2026-05-08 13:26 36.87320 42.85294 27986 ft 362 kts 332°
2026-05-08 13:26 36.89650 42.84078 27985 ft 362 kts 333°
2026-05-08 13:26 36.91991 42.82906 27985 ft 362 kts 334°
2026-05-08 13:26 36.94329 42.81733 27988 ft 362 kts 333°
2026-05-08 13:27 36.96666 42.80531 27989 ft 362 kts 333°
2026-05-08 13:27 36.98971 42.79320 27990 ft 355 kts 332°
2026-05-08 13:27 37.01215 42.78106 27990 ft 355 kts 332°
2026-05-08 13:27 37.03477 42.76864 27992 ft 356 kts 332°
2026-05-08 13:28 37.05738 42.75611 27991 ft 355 kts 332°
2026-05-08 13:28 37.07996 42.74357 27991 ft 355 kts 332°
2026-05-08 13:28 37.10259 42.73097 27991 ft 355 kts 332°
2026-05-08 13:28 37.12515 42.71841 27991 ft 355 kts 332°
2026-05-08 13:29 37.14778 42.70580 27990 ft 355 kts 332°
2026-05-08 13:29 37.17039 42.69320 27990 ft 355 kts 332°
2026-05-08 13:29 37.19297 42.68062 27991 ft 355 kts 332°
2026-05-08 13:29 37.21557 42.66802 27992 ft 355 kts 332°
2026-05-08 13:30 37.23770 42.65434 27991 ft 352 kts 324°
2026-05-08 13:30 37.25721 42.63606 27991 ft 348 kts 315°
2026-05-08 13:30 37.27408 42.61446 27991 ft 346 kts 308°
2026-05-08 13:30 37.28912 42.59095 27991 ft 344 kts 304°
2026-05-08 13:31 37.30307 42.56655 27990 ft 344 kts 303°
2026-05-08 13:31 37.31634 42.54243 27988 ft 337 kts 300°
2026-05-08 13:31 37.32967 42.51810 27987 ft 338 kts 301°
2026-05-08 13:31 37.34314 42.49382 27987 ft 339 kts 301°
2026-05-08 13:32 37.35677 42.46965 27986 ft 339 kts 301°
2026-05-08 13:32 37.37065 42.44561 27988 ft 339 kts 302°
2026-05-08 13:32 37.38463 42.42180 27989 ft 339 kts 302°
2026-05-08 13:32 37.39875 42.39794 27986 ft 339 kts 302°
2026-05-08 13:33 37.41284 42.37420 27985 ft 339 kts 302°
2026-05-08 13:33 37.42699 42.35042 27984 ft 339 kts 302°
2026-05-08 13:33 37.44111 42.32668 27984 ft 339 kts 303°
2026-05-08 13:33 37.45526 42.30291 27985 ft 339 kts 303°
2026-05-08 13:34 37.46943 42.27910 27984 ft 339 kts 303°
2026-05-08 13:34 37.48341 42.25561 27984 ft 339 kts 303°
2026-05-08 13:34 37.49754 42.23187 27983 ft 339 kts 303°
2026-05-08 13:34 37.51173 42.20803 27983 ft 339 kts 303°
2026-05-08 13:35 37.52589 42.18424 27982 ft 339 kts 303°
2026-05-08 13:35 37.54003 42.16047 27981 ft 339 kts 303°
2026-05-08 13:35 37.55420 42.13667 27981 ft 339 kts 303°
2026-05-08 13:35 37.56836 42.11286 27981 ft 339 kts 303°
2026-05-08 13:36 37.58252 42.08907 27981 ft 339 kts 303°
2026-05-08 13:36 37.59669 42.06524 27981 ft 339 kts 303°
2026-05-08 13:36 37.61085 42.04145 27979 ft 339 kts 303°
2026-05-08 13:36 37.62498 42.01768 27980 ft 339 kts 303°
2026-05-08 13:37 37.63917 41.99384 27984 ft 339 kts 303°
2026-05-08 13:37 37.65330 41.97008 27986 ft 339 kts 303°
2026-05-08 13:37 37.66746 41.94627 27988 ft 339 kts 303°
2026-05-08 13:37 37.68164 41.92242 27989 ft 339 kts 303°
2026-05-08 13:38 37.69590 41.89863 27990 ft 339 kts 303°
2026-05-08 13:38 37.71019 41.87498 27990 ft 339 kts 303°
2026-05-08 13:38 37.72435 41.85107 27992 ft 339 kts 302°
2026-05-08 13:38 37.73825 41.82711 27992 ft 339 kts 302°
2026-05-08 13:39 37.75214 41.80295 27989 ft 339 kts 302°
2026-05-08 13:39 37.76577 41.77917 27987 ft 339 kts 302°
2026-05-08 13:39 37.77964 41.75509 27986 ft 339 kts 302°
2026-05-08 13:39 37.79361 41.73107 27986 ft 338 kts 302°
2026-05-08 13:40 37.80720 41.70767 27982 ft 320 kts 302°
2026-05-08 13:40 37.82001 41.68566 27972 ft 300 kts 302°
2026-05-08 13:40 37.83215 41.66493 27971 ft 291 kts 302°
2026-05-08 13:40 37.84429 41.64414 27979 ft 296 kts 302°
2026-05-08 13:41 37.85656 41.62307 27982 ft 298 kts 302°
2026-05-08 13:41 37.86886 41.60195 27982 ft 298 kts 302°
2026-05-08 13:41 37.88113 41.58086 27979 ft 298 kts 302°
2026-05-08 13:41 37.89343 41.55974 27982 ft 298 kts 302°
2026-05-08 13:42 37.90575 41.53857 27985 ft 298 kts 302°
2026-05-08 13:42 37.91390 41.52455 27986 ft 298 kts 302°
2026-05-08 13:42 37.93019 41.49656 27986 ft 298 kts 302°
2026-05-08 13:42 37.94248 41.47543 27982 ft 298 kts 301°
2026-05-08 13:43 37.95480 41.45417 27962 ft 299 kts 301°
2026-05-08 13:43 37.96706 41.43293 27950 ft 298 kts 301°
2026-05-08 13:43 37.97515 41.41890 27944 ft 298 kts 301°
2026-05-08 13:43 37.98739 41.39767 27938 ft 298 kts 301°
2026-05-08 13:44 37.99961 41.37643 27935 ft 298 kts 301°
2026-05-08 13:44 38.01184 41.35519 27934 ft 298 kts 301°
2026-05-08 13:44 38.02413 41.33391 27932 ft 298 kts 301°
2026-05-08 13:44 38.03648 41.31274 27931 ft 299 kts 301°
2026-05-08 13:45 38.04886 41.29159 27930 ft 299 kts 301°
2026-05-08 13:45 38.06124 41.27037 27930 ft 298 kts 301°
2026-05-08 13:45 38.07359 41.24920 27937 ft 298 kts 301°
2026-05-08 13:45 38.08596 41.22802 27932 ft 299 kts 301°
2026-05-08 13:46 38.09833 41.20685 27925 ft 299 kts 301°
2026-05-08 13:46 38.11070 41.18567 27922 ft 299 kts 301°
2026-05-08 13:46 38.12311 41.16446 27922 ft 299 kts 301°
2026-05-08 13:46 38.13553 41.14328 27922 ft 299 kts 301°
2026-05-08 13:47 38.14699 41.12146 27922 ft 295 kts 294°
2026-05-08 13:47 38.15586 41.09846 27924 ft 293 kts 289°
2026-05-08 13:47 38.16351 41.07450 27924 ft 292 kts 287°
2026-05-08 13:47 38.17068 41.04999 27923 ft 292 kts 286°
2026-05-08 13:48 38.17743 41.02603 27923 ft 292 kts 286°
2026-05-08 13:48 38.18432 41.00178 27921 ft 292 kts 287°
2026-05-08 13:48 38.19131 40.97749 27920 ft 292 kts 287°
2026-05-08 13:48 38.19846 40.95334 27919 ft 292 kts 287°
2026-05-08 13:49 38.20578 40.92923 27919 ft 292 kts 288°
2026-05-08 13:49 38.21316 40.90515 27919 ft 292 kts 288°
2026-05-08 13:49 38.22058 40.88108 27918 ft 292 kts 288°
2026-05-08 13:49 38.22801 40.85698 27917 ft 292 kts 288°
2026-05-08 13:50 38.23548 40.83281 27917 ft 292 kts 288°
2026-05-08 13:50 38.24289 40.80880 27918 ft 292 kts 288°
2026-05-08 13:50 38.25019 40.78465 27918 ft 292 kts 287°
2026-05-08 13:50 38.25727 40.76072 27919 ft 292 kts 287°
2026-05-08 13:51 38.26436 40.73650 27920 ft 292 kts 287°
2026-05-08 13:51 38.27144 40.71226 27921 ft 292 kts 287°
2026-05-08 13:51 38.27852 40.68792 27921 ft 292 kts 287°
2026-05-08 13:51 38.28558 40.66367 27921 ft 292 kts 287°
2026-05-08 13:52 38.29265 40.63943 27920 ft 292 kts 287°
2026-05-08 13:52 38.29975 40.61534 27920 ft 288 kts 287°
2026-05-08 13:52 38.30685 40.59147 27919 ft 288 kts 287°
2026-05-08 13:52 38.31396 40.56760 27920 ft 289 kts 287°
2026-05-08 13:53 38.32111 40.54365 27919 ft 289 kts 287°
2026-05-08 13:53 38.32825 40.51971 27915 ft 289 kts 287°
2026-05-08 13:53 38.33530 40.49610 27913 ft 289 kts 287°
2026-05-08 13:53 38.34244 40.47219 27913 ft 289 kts 287°
2026-05-08 13:54 38.34956 40.44831 27913 ft 289 kts 287°
2026-05-08 13:54 38.35670 40.42440 27913 ft 289 kts 287°
2026-05-08 13:54 38.36380 40.40050 27914 ft 289 kts 287°
2026-05-08 13:54 38.37088 40.37660 27915 ft 289 kts 287°
2026-05-08 13:55 38.37797 40.35267 27915 ft 289 kts 287°
2026-05-08 13:55 38.38508 40.32870 27915 ft 289 kts 287°
2026-05-08 13:55 38.39927 40.28084 27911 ft 289 kts 286°
2026-05-08 13:56 38.40625 40.25686 27911 ft 289 kts 286°
2026-05-08 13:56 38.41336 40.23278 27911 ft 289 kts 287°
2026-05-08 13:56 38.42050 40.20886 27911 ft 289 kts 287°
2026-05-08 13:56 38.42767 40.18485 27912 ft 289 kts 287°
2026-05-08 13:57 38.43473 40.16117 27913 ft 289 kts 287°
2026-05-08 13:57 38.44186 40.13722 27913 ft 289 kts 287°
2026-05-08 13:57 38.44899 40.11332 27914 ft 289 kts 287°
2026-05-08 13:57 38.45614 40.08935 27914 ft 289 kts 287°
2026-05-08 13:58 38.46328 40.06541 27912 ft 289 kts 287°
2026-05-08 13:58 38.47045 40.04142 27907 ft 289 kts 287°
2026-05-08 13:58 38.47759 40.01758 27906 ft 282 kts 285°
2026-05-08 13:58 38.48446 39.99444 27902 ft 279 kts 285°
2026-05-08 13:59 38.49128 39.97125 27903 ft 280 kts 285°
2026-05-08 13:59 38.49812 39.94790 27903 ft 280 kts 285°
2026-05-08 13:59 38.50493 39.92461 27900 ft 280 kts 285°
2026-05-08 13:59 38.51166 39.90156 27898 ft 280 kts 285°
2026-05-08 14:00 38.51846 39.87828 27896 ft 280 kts 285°
2026-05-08 14:00 38.52528 39.85494 27895 ft 280 kts 285°
2026-05-08 14:00 38.53208 39.83165 27892 ft 280 kts 285°
2026-05-08 14:00 38.53888 39.80835 27886 ft 280 kts 285°
2026-05-08 14:01 38.54569 39.78504 27884 ft 280 kts 285°
2026-05-08 14:01 38.55237 39.76170 27884 ft 279 kts 284°
2026-05-08 14:01 38.55850 39.73817 27884 ft 279 kts 283°
2026-05-08 14:01 38.56434 39.71452 27884 ft 278 kts 282°
2026-05-08 14:02 38.57005 39.69087 27885 ft 278 kts 282°
2026-05-08 14:02 38.57570 39.66722 27885 ft 278 kts 282°
2026-05-08 14:02 38.58135 39.64353 27884 ft 278 kts 282°
2026-05-08 14:02 38.58711 39.61986 27885 ft 279 kts 282°
2026-05-08 14:03 38.59292 39.59628 27885 ft 279 kts 282°
2026-05-08 14:03 38.59868 39.57293 27881 ft 279 kts 282°
2026-05-08 14:03 38.60451 39.54928 27879 ft 278 kts 282°
2026-05-08 14:03 38.61033 39.52563 27878 ft 278 kts 282°
2026-05-08 14:04 38.61616 39.50203 27877 ft 278 kts 282°
2026-05-08 14:04 38.62199 39.47840 27877 ft 278 kts 282°
2026-05-08 14:04 38.62784 39.45476 27878 ft 279 kts 282°
2026-05-08 14:04 38.63368 39.43113 27878 ft 279 kts 282°
2026-05-08 14:05 38.63953 39.40753 27878 ft 279 kts 282°
2026-05-08 14:05 38.64539 39.38388 27878 ft 279 kts 282°
2026-05-08 14:05 38.65124 39.36028 27877 ft 279 kts 282°
2026-05-08 14:05 38.65711 39.33663 27876 ft 278 kts 282°
2026-05-08 14:06 38.66297 39.31304 27875 ft 278 kts 282°
2026-05-08 14:06 38.66884 39.28943 27875 ft 278 kts 282°
2026-05-08 14:06 38.67464 39.26611 27875 ft 279 kts 282°
2026-05-08 14:06 38.68053 39.24247 27875 ft 279 kts 282°
2026-05-08 14:07 38.68641 39.21887 27875 ft 279 kts 282°
2026-05-08 14:07 38.69231 39.19523 27875 ft 279 kts 282°
2026-05-08 14:07 38.69822 39.17158 27875 ft 279 kts 282°
2026-05-08 14:07 38.70412 39.14794 27875 ft 279 kts 282°
2026-05-08 14:08 38.71003 39.12433 27874 ft 279 kts 282°
2026-05-08 14:08 38.71594 39.10071 27874 ft 279 kts 282°
2026-05-08 14:08 38.72182 39.07725 27874 ft 279 kts 283°
2026-05-08 14:08 38.72778 39.05344 27874 ft 279 kts 283°
2026-05-08 14:09 38.73372 39.02981 27874 ft 279 kts 283°
2026-05-08 14:09 38.73965 39.00617 27874 ft 279 kts 283°
2026-05-08 14:09 38.74558 38.98256 27874 ft 279 kts 283°
2026-05-08 14:09 38.75153 38.95889 27874 ft 279 kts 283°
2026-05-08 14:10 38.75749 38.93521 27874 ft 279 kts 283°
2026-05-08 14:10 38.76340 38.91152 27874 ft 279 kts 282°
2026-05-08 14:10 38.76920 38.88786 27874 ft 279 kts 282°
2026-05-08 14:10 38.77501 38.86414 27873 ft 279 kts 282°
2026-05-08 14:11 38.78074 38.84070 27873 ft 279 kts 282°
2026-05-08 14:11 38.78642 38.81701 27873 ft 279 kts 282°
2026-05-08 14:11 38.79208 38.79326 27873 ft 278 kts 282°
2026-05-08 14:11 38.79772 38.76951 27873 ft 278 kts 282°
2026-05-08 14:12 38.80336 38.74570 27873 ft 278 kts 282°
2026-05-08 14:12 38.80899 38.72193 27873 ft 278 kts 282°
2026-05-08 14:12 38.81463 38.69814 27873 ft 278 kts 282°
2026-05-08 14:12 38.82024 38.67442 27873 ft 278 kts 282°
2026-05-08 14:13 38.82588 38.65062 27871 ft 279 kts 282°
2026-05-08 14:13 38.83153 38.62675 27869 ft 279 kts 282°
2026-05-08 14:13 38.83714 38.60301 27866 ft 288 kts 282°
2026-05-08 14:13 38.84308 38.57814 27869 ft 292 kts 282°
2026-05-08 14:14 38.84912 38.55327 27868 ft 292 kts 283°
2026-05-08 14:14 38.85509 38.52842 27867 ft 291 kts 282°
2026-05-08 14:14 38.86099 38.50351 27866 ft 291 kts 282°
2026-05-08 14:14 38.86691 38.47860 27866 ft 291 kts 282°
2026-05-08 14:15 38.87284 38.45376 27866 ft 291 kts 282°
2026-05-08 14:15 38.87879 38.42888 27865 ft 291 kts 282°
2026-05-08 14:15 38.88474 38.40398 27864 ft 291 kts 282°
2026-05-08 14:15 38.89069 38.37910 27864 ft 291 kts 282°
2026-05-08 14:16 38.89664 38.35425 27863 ft 291 kts 282°
2026-05-08 14:16 38.90262 38.32931 27863 ft 291 kts 282°
2026-05-08 14:16 38.90849 38.30482 27863 ft 291 kts 282°
2026-05-08 14:16 38.91447 38.27995 27862 ft 292 kts 282°
2026-05-08 14:17 38.92044 38.25509 27862 ft 292 kts 282°
2026-05-08 14:17 38.92643 38.23018 27862 ft 292 kts 282°
2026-05-08 14:17 38.93243 38.20529 27862 ft 292 kts 282°
2026-05-08 14:17 38.93843 38.18038 27862 ft 292 kts 282°
2026-05-08 14:18 38.94442 38.15553 27862 ft 292 kts 282°
2026-05-08 14:18 38.95043 38.13065 27862 ft 292 kts 282°
2026-05-08 14:18 38.95645 38.10575 27862 ft 292 kts 283°
2026-05-08 14:18 38.96247 38.08084 27861 ft 292 kts 283°
2026-05-08 14:19 38.96850 38.05593 27860 ft 292 kts 283°
2026-05-08 14:19 38.97447 38.03128 27860 ft 292 kts 283°
2026-05-08 14:19 38.98057 38.00611 27860 ft 292 kts 283°
2026-05-08 14:19 38.98644 37.98143 27860 ft 291 kts 282°
2026-05-08 14:20 38.99230 37.95651 27860 ft 291 kts 282°
2026-05-08 14:20 38.99820 37.93161 27861 ft 291 kts 282°
2026-05-08 14:20 39.00400 37.90665 27861 ft 291 kts 282°
2026-05-08 14:20 39.00977 37.88158 27862 ft 291 kts 282°
2026-05-08 14:21 39.01549 37.85663 27862 ft 291 kts 282°
2026-05-08 14:21 39.02120 37.83164 27861 ft 291 kts 282°
2026-05-08 14:21 39.02692 37.80662 27861 ft 291 kts 282°
2026-05-08 14:21 39.03263 37.78161 27862 ft 291 kts 282°
2026-05-08 14:22 39.03833 37.75664 27863 ft 291 kts 282°
2026-05-08 14:22 39.04404 37.73167 27863 ft 291 kts 282°
2026-05-08 14:22 39.04968 37.70694 27864 ft 291 kts 282°
2026-05-08 14:22 39.05540 37.68190 27864 ft 291 kts 282°
2026-05-08 14:23 39.06111 37.65688 27864 ft 291 kts 282°
2026-05-08 14:23 39.06681 37.63190 27864 ft 291 kts 282°
2026-05-08 14:23 39.07251 37.60691 27864 ft 291 kts 282°
2026-05-08 14:23 39.07822 37.58188 27863 ft 291 kts 282°
2026-05-08 14:24 39.08393 37.55690 27863 ft 291 kts 282°
2026-05-08 14:24 39.08964 37.53187 27863 ft 291 kts 282°
2026-05-08 14:24 39.09534 37.50687 27862 ft 291 kts 282°
2026-05-08 14:24 39.10099 37.48211 27860 ft 291 kts 282°
2026-05-08 14:25 39.10675 37.45684 27859 ft 291 kts 281°
2026-05-08 14:25 39.11232 37.43279 27859 ft 274 kts 280°
2026-05-08 14:25 39.11772 37.40977 27855 ft 267 kts 280°
2026-05-08 14:25 39.12309 37.38672 27858 ft 270 kts 280°
2026-05-08 14:26 39.12847 37.36344 27860 ft 272 kts 280°
2026-05-08 14:26 39.13387 37.34006 27860 ft 272 kts 280°
2026-05-08 14:26 39.13925 37.31673 27859 ft 272 kts 280°
2026-05-08 14:26 39.14463 37.29343 27860 ft 272 kts 280°
2026-05-08 14:27 39.15002 37.27004 27860 ft 272 kts 280°
2026-05-08 14:27 39.15541 37.24668 27860 ft 271 kts 280°
2026-05-08 14:27 39.16079 37.22337 27860 ft 271 kts 280°
2026-05-08 14:27 39.16611 37.20034 27860 ft 271 kts 280°
2026-05-08 14:28 39.17148 37.17704 27860 ft 271 kts 280°
2026-05-08 14:28 39.17685 37.15374 27860 ft 271 kts 280°
2026-05-08 14:28 39.18225 37.13037 27860 ft 271 kts 280°
2026-05-08 14:28 39.18763 37.10702 27860 ft 271 kts 280°
2026-05-08 14:29 39.19302 37.08367 27860 ft 271 kts 280°
2026-05-08 14:29 39.19840 37.06030 27860 ft 271 kts 280°
2026-05-08 14:29 39.20378 37.03696 27861 ft 271 kts 280°
2026-05-08 14:29 39.20918 37.01373 27864 ft 271 kts 280°
2026-05-08 14:30 39.21465 36.99042 27867 ft 271 kts 279°
2026-05-08 14:30 39.21988 36.96705 27867 ft 271 kts 279°
2026-05-08 14:30 39.22496 36.94366 27867 ft 271 kts 279°
2026-05-08 14:30 39.22998 36.92030 27867 ft 271 kts 279°
2026-05-08 14:31 39.23504 36.89691 27866 ft 271 kts 279°
2026-05-08 14:31 39.24015 36.87349 27866 ft 271 kts 279°
2026-05-08 14:31 39.24525 36.85007 27865 ft 271 kts 279°
2026-05-08 14:32 39.25373 36.81121 27866 ft 271 kts 279°
2026-05-08 14:32 39.26049 36.78024 27868 ft 270 kts 279°
2026-05-08 14:32 39.26560 36.75686 27870 ft 271 kts 279°
2026-05-08 14:32 39.27070 36.73353 27870 ft 271 kts 279°
2026-05-08 14:33 39.27416 36.71777 27870 ft 271 kts 279°
2026-05-08 14:33 39.27929 36.69436 27870 ft 271 kts 279°
2026-05-08 14:33 39.28441 36.67099 27870 ft 271 kts 279°
2026-05-08 14:33 39.28956 36.64758 27868 ft 271 kts 279°
2026-05-08 14:34 39.29469 36.62422 27868 ft 271 kts 279°
2026-05-08 14:34 39.29978 36.60111 27868 ft 271 kts 279°
2026-05-08 14:34 39.30494 36.57763 27868 ft 271 kts 279°
2026-05-08 14:34 39.31009 36.55426 27868 ft 271 kts 279°
2026-05-08 14:35 39.31525 36.53086 27871 ft 271 kts 279°
2026-05-08 14:35 39.32040 36.50751 27872 ft 271 kts 279°
2026-05-08 14:35 39.32559 36.48402 27873 ft 271 kts 279°
2026-05-08 14:35 39.33075 36.46068 27873 ft 271 kts 279°
2026-05-08 14:36 39.33586 36.43757 27873 ft 271 kts 279°
2026-05-08 14:36 39.34105 36.41415 27871 ft 271 kts 279°
2026-05-08 14:36 39.34626 36.39067 27870 ft 271 kts 279°
2026-05-08 14:36 39.35145 36.36731 27870 ft 271 kts 279°
2026-05-08 14:37 39.35664 36.34390 27870 ft 271 kts 279°
2026-05-08 14:37 39.36186 36.32046 27871 ft 270 kts 279°
2026-05-08 14:37 39.36704 36.29715 27876 ft 270 kts 279°
2026-05-08 14:37 39.37225 36.27377 27879 ft 270 kts 279°
2026-05-08 14:38 39.37745 36.25044 27882 ft 270 kts 279°
2026-05-08 14:38 39.38259 36.22737 27886 ft 270 kts 279°
2026-05-08 14:38 39.38781 36.20401 27887 ft 270 kts 279°
2026-05-08 14:38 39.39303 36.18069 27885 ft 270 kts 279°
2026-05-08 14:39 39.39826 36.15732 27884 ft 270 kts 279°
2026-05-08 14:39 39.40350 36.13385 27884 ft 270 kts 279°
2026-05-08 14:39 39.40864 36.11050 27883 ft 270 kts 279°
2026-05-08 14:39 39.41380 36.08708 27882 ft 270 kts 279°
2026-05-08 14:40 39.41895 36.06367 27879 ft 270 kts 279°
2026-05-08 14:40 39.42399 36.04029 27878 ft 270 kts 279°
2026-05-08 14:40 39.42902 36.01660 27878 ft 276 kts 279°
2026-05-08 14:40 39.43401 35.99267 27877 ft 275 kts 279°
2026-05-08 14:41 39.43898 35.96875 27877 ft 275 kts 279°
2026-05-08 14:41 39.44393 35.94489 27876 ft 275 kts 279°
2026-05-08 14:41 39.44888 35.92097 27875 ft 275 kts 279°
2026-05-08 14:41 39.45375 35.89739 27875 ft 275 kts 279°
2026-05-08 14:42 39.45876 35.87319 27875 ft 274 kts 279°
2026-05-08 14:42 39.46364 35.84963 27876 ft 274 kts 279°
2026-05-08 14:42 39.46860 35.82565 27877 ft 275 kts 279°
2026-05-08 14:42 39.47355 35.80180 27878 ft 275 kts 279°
2026-05-08 14:43 39.47856 35.77789 27878 ft 275 kts 279°
2026-05-08 14:43 39.48359 35.75396 27878 ft 275 kts 279°
2026-05-08 14:43 39.48861 35.73008 27877 ft 275 kts 279°
2026-05-08 14:43 39.49365 35.70614 27876 ft 275 kts 279°
2026-05-08 14:44 39.49867 35.68228 27875 ft 275 kts 279°
2026-05-08 14:44 39.50372 35.65835 27875 ft 275 kts 279°
2026-05-08 14:44 39.50876 35.63446 27875 ft 275 kts 279°
2026-05-08 14:44 39.51375 35.61084 27877 ft 275 kts 279°
2026-05-08 14:45 39.51882 35.58689 27880 ft 275 kts 279°
2026-05-08 14:45 39.52388 35.56295 27882 ft 275 kts 279°
2026-05-08 14:45 39.52895 35.53902 27883 ft 275 kts 279°
2026-05-08 14:45 39.53402 35.51514 27883 ft 275 kts 279°
2026-05-08 14:46 39.53910 35.49119 27882 ft 275 kts 279°
2026-05-08 14:46 39.54413 35.46753 27880 ft 275 kts 279°
2026-05-08 14:46 39.54928 35.44329 27879 ft 275 kts 279°
2026-05-08 14:46 39.55430 35.41971 27881 ft 275 kts 279°
2026-05-08 14:47 39.55946 35.39550 27884 ft 275 kts 279°
2026-05-08 14:47 39.56456 35.37160 27886 ft 275 kts 279°
2026-05-08 14:47 39.56960 35.34796 27886 ft 275 kts 279°
2026-05-08 14:47 39.57471 35.32406 27886 ft 275 kts 279°
2026-05-08 14:48 39.57983 35.30011 27886 ft 275 kts 279°
2026-05-08 14:48 39.58495 35.27621 27886 ft 275 kts 279°
2026-05-08 14:48 39.59009 35.25220 27884 ft 275 kts 279°
2026-05-08 14:48 39.59521 35.22830 27883 ft 275 kts 279°
2026-05-08 14:49 39.60035 35.20435 27883 ft 275 kts 279°
2026-05-08 14:49 39.60549 35.18039 27883 ft 275 kts 279°
2026-05-08 14:49 39.61061 35.15644 27883 ft 275 kts 279°
2026-05-08 14:49 39.61565 35.13285 27883 ft 272 kts 279°
2026-05-08 14:50 39.62063 35.10926 27884 ft 271 kts 279°
2026-05-08 14:50 39.62558 35.08548 27887 ft 274 kts 279°
2026-05-08 14:50 39.63046 35.06153 27888 ft 275 kts 278°
2026-05-08 14:50 39.63525 35.03753 27887 ft 275 kts 278°
2026-05-08 14:51 39.64003 35.01345 27886 ft 275 kts 278°
2026-05-08 14:51 39.64482 34.98926 27885 ft 279 kts 279°
2026-05-08 14:51 39.64966 34.96489 27884 ft 278 kts 279°
2026-05-08 14:51 39.65449 34.94063 27884 ft 278 kts 279°
2026-05-08 14:52 39.65933 34.91638 27885 ft 278 kts 279°
2026-05-08 14:52 39.66899 34.86801 27894 ft 277 kts 278°
2026-05-08 14:52 39.67373 34.84449 27893 ft 263 kts 277°
2026-05-08 14:53 39.67829 34.82158 27894 ft 263 kts 277°
2026-05-08 14:53 39.68283 34.79837 27896 ft 266 kts 277°
2026-05-08 14:53 39.68741 34.77506 27895 ft 267 kts 277°
2026-05-08 14:53 39.69209 34.75175 27894 ft 267 kts 277°
2026-05-08 14:54 39.69680 34.72840 27893 ft 267 kts 277°
2026-05-08 14:54 39.70152 34.70505 27893 ft 267 kts 277°
2026-05-08 14:54 39.70621 34.68179 27893 ft 267 kts 277°
2026-05-08 14:54 39.71093 34.65842 27897 ft 267 kts 277°
2026-05-08 14:55 39.71565 34.63507 27899 ft 267 kts 277°
2026-05-08 14:55 39.72037 34.61178 27900 ft 267 kts 277°
2026-05-08 14:55 39.72509 34.58849 27900 ft 267 kts 277°
2026-05-08 14:55 39.72982 34.56519 27901 ft 267 kts 277°
2026-05-08 14:56 39.73456 34.54184 27902 ft 267 kts 277°
2026-05-08 14:56 39.73931 34.51849 27902 ft 267 kts 277°
2026-05-08 14:56 39.74405 34.49518 27902 ft 267 kts 277°
2026-05-08 14:56 39.74879 34.47188 27902 ft 267 kts 277°
2026-05-08 14:57 39.75350 34.44881 27903 ft 267 kts 277°
2026-05-08 14:57 39.75826 34.42545 27904 ft 267 kts 277°
2026-05-08 14:57 39.76302 34.40217 27904 ft 267 kts 277°
2026-05-08 14:57 39.76780 34.37880 27904 ft 267 kts 277°
2026-05-08 14:58 39.77257 34.35551 27904 ft 267 kts 277°
2026-05-08 14:58 39.77735 34.33216 27904 ft 267 kts 277°
2026-05-08 14:58 39.78213 34.30886 27904 ft 267 kts 277°
2026-05-08 14:58 39.78693 34.28550 27904 ft 267 kts 277°
2026-05-08 14:59 39.79172 34.26214 27904 ft 267 kts 277°
2026-05-08 14:59 39.80111 34.21544 27904 ft 267 kts 277°
2026-05-08 14:59 39.80573 34.19243 27904 ft 267 kts 277°
2026-05-08 15:00 39.81034 34.16904 27904 ft 267 kts 277°
2026-05-08 15:00 39.81488 34.14570 27904 ft 266 kts 277°
2026-05-08 15:00 39.81938 34.12236 27904 ft 266 kts 277°
2026-05-08 15:00 39.82389 34.09894 27904 ft 266 kts 277°
2026-05-08 15:01 39.82839 34.07552 27904 ft 266 kts 277°
2026-05-08 15:01 39.83287 34.05216 27904 ft 266 kts 277°
2026-05-08 15:01 39.83736 34.02882 27904 ft 266 kts 277°
2026-05-08 15:01 39.84186 34.00534 27904 ft 266 kts 277°
2026-05-08 15:02 39.84636 33.98191 27904 ft 266 kts 277°
2026-05-08 15:02 39.85080 33.95880 27904 ft 266 kts 277°
2026-05-08 15:02 39.85529 33.93540 27904 ft 266 kts 277°
2026-05-08 15:02 39.85977 33.91205 27904 ft 266 kts 277°
2026-05-08 15:03 39.86426 33.88862 27904 ft 266 kts 277°
2026-05-08 15:03 39.86875 33.86522 27904 ft 266 kts 277°
2026-05-08 15:03 39.87323 33.84186 27904 ft 266 kts 277°
2026-05-08 15:03 39.87773 33.81838 27904 ft 266 kts 277°
2026-05-08 15:04 39.88221 33.79501 27904 ft 266 kts 277°
2026-05-08 15:04 39.88670 33.77155 27904 ft 266 kts 277°
2026-05-08 15:04 39.89119 33.74813 27904 ft 266 kts 277°
2026-05-08 15:04 39.89566 33.72477 27904 ft 266 kts 277°
2026-05-08 15:05 39.90015 33.70133 27904 ft 266 kts 277°
2026-05-08 15:05 39.90464 33.67790 27904 ft 266 kts 277°
2026-05-08 15:05 39.90913 33.65444 27904 ft 266 kts 277°
2026-05-08 15:05 39.91355 33.63137 27904 ft 266 kts 277°
2026-05-08 15:06 39.91803 33.60793 27904 ft 266 kts 277°
2026-05-08 15:06 39.92253 33.58444 27904 ft 266 kts 277°
2026-05-08 15:06 39.92701 33.56100 27904 ft 266 kts 277°
2026-05-08 15:06 39.93149 33.53757 27904 ft 266 kts 277°
2026-05-08 15:07 39.93598 33.51413 27904 ft 266 kts 277°
2026-05-08 15:07 39.94044 33.49078 27904 ft 266 kts 277°
2026-05-08 15:07 39.94493 33.46735 27904 ft 266 kts 277°
2026-05-08 15:07 39.94942 33.44391 27904 ft 266 kts 277°
2026-05-08 15:08 39.95392 33.42079 27904 ft 266 kts 277°
2026-05-08 15:08 39.95701 33.40498 27904 ft 266 kts 277°
2026-05-08 15:08 39.96307 33.37406 27904 ft 268 kts 277°
2026-05-08 15:08 39.96774 33.35052 27904 ft 268 kts 277°
2026-05-08 15:09 39.97245 33.32705 27904 ft 268 kts 277°
2026-05-08 15:09 39.97720 33.30346 27904 ft 268 kts 277°
2026-05-08 15:09 39.98186 33.27993 27904 ft 267 kts 277°
2026-05-08 15:09 39.98636 33.25645 27904 ft 267 kts 277°
2026-05-08 15:10 39.99087 33.23291 27904 ft 267 kts 277°
2026-05-08 15:10 39.99529 33.20937 27904 ft 267 kts 277°
2026-05-08 15:10 39.99960 33.18610 27904 ft 267 kts 277°
2026-05-08 15:10 40.00395 33.16258 27904 ft 267 kts 277°
2026-05-08 15:11 40.00835 33.13870 27904 ft 267 kts 277°
2026-05-08 15:11 40.01263 33.11546 27904 ft 267 kts 277°
2026-05-08 15:11 40.01697 33.09193 27904 ft 267 kts 277°
2026-05-08 15:11 40.02130 33.06835 27904 ft 267 kts 277°
2026-05-08 15:12 40.02564 33.04479 27904 ft 267 kts 277°
2026-05-08 15:12 40.02997 33.02122 27904 ft 267 kts 277°
2026-05-08 15:12 40.03431 32.99764 27904 ft 267 kts 277°
2026-05-08 15:12 40.03864 32.97411 27904 ft 267 kts 277°
2026-05-08 15:13 40.04299 32.95051 27904 ft 267 kts 277°
2026-05-08 15:13 40.04738 32.92697 27904 ft 267 kts 277°
2026-05-08 15:13 40.05179 32.90346 27904 ft 267 kts 277°
2026-05-08 15:13 40.05621 32.87990 27904 ft 267 kts 277°
2026-05-08 15:14 40.06068 32.85637 27904 ft 267 kts 277°
2026-05-08 15:14 40.06521 32.83284 27904 ft 267 kts 277°
2026-05-08 15:14 40.06966 32.80931 27904 ft 267 kts 276°
2026-05-08 15:14 40.07346 32.78567 27904 ft 266 kts 275°
2026-05-08 15:15 40.07687 32.76197 27904 ft 265 kts 274°
2026-05-08 15:15 40.08006 32.73857 27904 ft 265 kts 274°
2026-05-08 15:15 40.08323 32.71486 27904 ft 265 kts 274°
2026-05-08 15:15 40.08636 32.69113 27904 ft 265 kts 274°
2026-05-08 15:16 40.08949 32.66742 27904 ft 265 kts 274°
2026-05-08 15:16 40.09264 32.64368 27904 ft 265 kts 274°
2026-05-08 15:16 40.09587 32.62002 27904 ft 265 kts 274°
2026-05-08 15:16 40.09915 32.59627 27904 ft 265 kts 274°
2026-05-08 15:17 40.10243 32.57259 27904 ft 265 kts 274°
2026-05-08 15:17 40.10571 32.54886 27904 ft 265 kts 274°
2026-05-08 15:17 40.10900 32.52512 27904 ft 265 kts 274°
2026-05-08 15:17 40.11228 32.50143 27904 ft 265 kts 274°
2026-05-08 15:18 40.11558 32.47766 27904 ft 265 kts 274°
2026-05-08 15:18 40.11883 32.45427 27904 ft 265 kts 274°
2026-05-08 15:18 40.12213 32.43059 27904 ft 265 kts 274°
2026-05-08 15:18 40.12544 32.40685 27904 ft 265 kts 274°
2026-05-08 15:19 40.12875 32.38312 27904 ft 265 kts 274°
2026-05-08 15:19 40.13206 32.35943 27904 ft 265 kts 274°
2026-05-08 15:19 40.13538 32.33572 27904 ft 265 kts 274°
2026-05-08 15:19 40.13872 32.31197 27904 ft 265 kts 274°
2026-05-08 15:20 40.14204 32.28830 27904 ft 265 kts 274°
2026-05-08 15:20 40.14538 32.26455 27904 ft 265 kts 274°
2026-05-08 15:20 40.14874 32.24075 27904 ft 265 kts 274°
2026-05-08 15:20 40.15208 32.21704 27904 ft 265 kts 274°
2026-05-08 15:21 40.15544 32.19329 27904 ft 265 kts 274°
2026-05-08 15:21 40.15875 32.16990 27904 ft 265 kts 274°
2026-05-08 15:21 40.16210 32.14619 27904 ft 265 kts 274°
2026-05-08 15:21 40.16541 32.12248 27904 ft 265 kts 274°
2026-05-08 15:22 40.16870 32.09870 27904 ft 267 kts 274°
2026-05-08 15:22 40.17199 32.07415 27909 ft 278 kts 274°
2026-05-08 15:22 40.17402 32.05754 27908 ft 279 kts 273°
2026-05-08 15:22 40.17690 32.03294 27902 ft 267 kts 273°
2026-05-08 15:23 40.17957 32.00913 27900 ft 263 kts 272°
2026-05-08 15:23 40.18208 31.98547 27902 ft 263 kts 272°
2026-05-08 15:23 40.18461 31.96170 27904 ft 264 kts 272°
2026-05-08 15:23 40.18716 31.93792 27904 ft 264 kts 272°
2026-05-08 15:24 40.18971 31.91414 27904 ft 264 kts 272°
2026-05-08 15:24 40.19227 31.89036 27904 ft 264 kts 272°
2026-05-08 15:24 40.19483 31.86657 27906 ft 264 kts 272°
2026-05-08 15:24 40.19739 31.84288 27917 ft 260 kts 272°
2026-05-08 15:25 40.19996 31.81945 27923 ft 260 kts 272°
2026-05-08 15:25 40.20252 31.79604 27927 ft 260 kts 272°
2026-05-08 15:25 40.20509 31.77254 27929 ft 260 kts 272°
2026-05-08 15:25 40.20765 31.74909 27930 ft 260 kts 272°
2026-05-08 15:26 40.21022 31.72562 27931 ft 260 kts 272°
2026-05-08 15:26 40.21275 31.70247 27932 ft 260 kts 272°
2026-05-08 15:26 40.21531 31.67902 27932 ft 260 kts 272°
2026-05-08 15:26 40.21788 31.65550 27932 ft 260 kts 272°
2026-05-08 15:27 40.22044 31.63203 27934 ft 260 kts 272°
2026-05-08 15:27 40.22301 31.60857 27943 ft 260 kts 272°
2026-05-08 15:27 40.22557 31.58511 27948 ft 260 kts 272°
2026-05-08 15:27 40.22813 31.56165 27950 ft 260 kts 272°
2026-05-08 15:28 40.23069 31.53811 27951 ft 260 kts 272°
2026-05-08 15:28 40.23322 31.51497 27952 ft 260 kts 272°
2026-05-08 15:28 40.23577 31.49153 27953 ft 260 kts 272°
2026-05-08 15:28 40.23833 31.46807 27954 ft 260 kts 272°
2026-05-08 15:29 40.24089 31.44457 27954 ft 260 kts 272°
2026-05-08 15:29 40.24344 31.42112 27954 ft 260 kts 272°
2026-05-08 15:29 40.24599 31.39767 27955 ft 260 kts 272°
2026-05-08 15:29 40.24854 31.37423 27959 ft 260 kts 272°
2026-05-08 15:30 40.25110 31.35072 27961 ft 260 kts 272°
2026-05-08 15:30 40.25365 31.32728 27962 ft 260 kts 272°
2026-05-08 15:30 40.25620 31.30381 27963 ft 260 kts 272°
2026-05-08 15:30 40.25875 31.28033 27931 ft 261 kts 272°
2026-05-08 15:31 40.26131 31.25678 27808 ft 261 kts 272°
2026-05-08 15:31 40.26392 31.23326 27663 ft 260 kts 272°
2026-05-08 15:31 40.26653 31.20998 27513 ft 258 kts 272°
2026-05-08 15:31 40.26911 31.18702 27364 ft 257 kts 272°
2026-05-08 15:32 40.27175 31.16389 27214 ft 257 kts 273°
2026-05-08 15:32 40.27445 31.14082 27063 ft 256 kts 273°
2026-05-08 15:32 40.27717 31.11780 26904 ft 255 kts 273°
2026-05-08 15:32 40.27986 31.09486 26695 ft 255 kts 272°
2026-05-08 15:33 40.28235 31.07198 26455 ft 253 kts 272°
2026-05-08 15:33 40.28469 31.04918 26206 ft 251 kts 272°
2026-05-08 15:33 40.28699 31.02660 25956 ft 250 kts 272°
2026-05-08 15:33 40.28929 31.00407 25706 ft 249 kts 272°
2026-05-08 15:34 40.29155 30.98187 25458 ft 248 kts 271°
2026-05-08 15:34 40.29377 30.95956 25207 ft 247 kts 271°
2026-05-08 15:34 40.29598 30.93733 24957 ft 245 kts 271°
2026-05-08 15:34 40.29819 30.91530 24706 ft 243 kts 271°
2026-05-08 15:35 40.30039 30.89340 24456 ft 242 kts 271°
2026-05-08 15:35 40.30263 30.87157 24205 ft 241 kts 271°
2026-05-08 15:35 40.30489 30.84984 23954 ft 240 kts 271°
2026-05-08 15:35 40.30717 30.82816 23704 ft 239 kts 271°
2026-05-08 15:36 40.30944 30.80668 23454 ft 238 kts 271°
2026-05-08 15:36 40.31180 30.78523 23203 ft 238 kts 272°
2026-05-08 15:36 40.31424 30.76382 22952 ft 237 kts 272°
2026-05-08 15:36 40.31655 30.74246 22702 ft 236 kts 272°
2026-05-08 15:37 40.31877 30.72139 22454 ft 236 kts 272°
2026-05-08 15:37 40.32102 30.70016 22204 ft 235 kts 272°
2026-05-08 15:37 40.32335 30.67896 21953 ft 234 kts 272°
2026-05-08 15:37 40.32564 30.65786 21703 ft 234 kts 272°
2026-05-08 15:38 40.32790 30.63676 21453 ft 233 kts 272°
2026-05-08 15:38 40.33013 30.61568 21202 ft 233 kts 272°
2026-05-08 15:38 40.33235 30.59466 20952 ft 232 kts 272°
2026-05-08 15:38 40.33450 30.57373 20701 ft 232 kts 272°
2026-05-08 15:39 40.33661 30.55275 20451 ft 232 kts 272°
2026-05-08 15:39 40.33869 30.53166 20199 ft 234 kts 274°
2026-05-08 15:39 40.34083 30.50982 19952 ft 257 kts 276°
2026-05-08 15:39 40.34323 30.48655 19704 ft 257 kts 276°
2026-05-08 15:40 40.34568 30.46339 19453 ft 256 kts 276°
2026-05-08 15:40 40.34816 30.44030 19202 ft 256 kts 276°
2026-05-08 15:40 40.35065 30.41721 18952 ft 256 kts 276°
2026-05-08 15:40 40.35313 30.39419 18702 ft 256 kts 276°
2026-05-08 15:41 40.35560 30.37107 18451 ft 256 kts 276°
2026-05-08 15:41 40.35807 30.34793 18200 ft 256 kts 276°
2026-05-08 15:41 40.36049 30.32479 17950 ft 256 kts 276°
2026-05-08 15:41 40.36293 30.30172 17700 ft 256 kts 276°
2026-05-08 15:42 40.36537 30.27862 17451 ft 254 kts 276°
2026-05-08 15:42 40.36777 30.25565 17221 ft 254 kts 276°
2026-05-08 15:42 40.37011 30.23296 16998 ft 253 kts 276°
2026-05-08 15:42 40.37243 30.21008 16772 ft 253 kts 276°
2026-05-08 15:43 40.37472 30.18728 16554 ft 252 kts 276°
2026-05-08 15:43 40.37708 30.16452 16373 ft 251 kts 277°
2026-05-08 15:43 40.37956 30.14179 16198 ft 252 kts 277°
2026-05-08 15:43 40.38206 30.11908 16022 ft 251 kts 277°
2026-05-08 15:44 40.38456 30.09646 15847 ft 250 kts 277°
2026-05-08 15:44 40.38701 30.07408 15674 ft 251 kts 277°
2026-05-08 15:44 40.38946 30.05148 15498 ft 250 kts 277°
2026-05-08 15:44 40.39188 30.02892 15322 ft 249 kts 277°
2026-05-08 15:45 40.39429 30.00639 15148 ft 249 kts 277°
2026-05-08 15:45 40.39666 29.98388 14972 ft 248 kts 277°
2026-05-08 15:45 40.39902 29.96152 14797 ft 246 kts 276°
2026-05-08 15:45 40.40135 29.93928 14621 ft 246 kts 276°
2026-05-08 15:46 40.40366 29.91703 14446 ft 247 kts 276°
2026-05-08 15:46 40.40598 29.89472 14270 ft 247 kts 277°
2026-05-08 15:46 40.40844 29.87243 14095 ft 247 kts 277°
2026-05-08 15:46 40.41098 29.85008 13920 ft 247 kts 277°
2026-05-08 15:47 40.41340 29.82770 13744 ft 247 kts 277°
2026-05-08 15:47 40.41578 29.80528 13569 ft 247 kts 277°
2026-05-08 15:47 40.41811 29.78326 13396 ft 246 kts 277°
2026-05-08 15:47 40.42034 29.76095 13221 ft 247 kts 276°
2026-05-08 15:48 40.42462 29.71644 12870 ft 245 kts 276°
2026-05-08 15:48 40.42675 29.69425 12694 ft 244 kts 277°
2026-05-08 15:48 40.42899 29.67203 12519 ft 245 kts 277°
2026-05-08 15:49 40.43128 29.64994 12344 ft 244 kts 277°
2026-05-08 15:49 40.43357 29.62789 12168 ft 243 kts 277°
2026-05-08 15:49 40.43581 29.60591 11993 ft 243 kts 277°
2026-05-08 15:49 40.43804 29.58391 11818 ft 243 kts 277°
2026-05-08 15:50 40.44022 29.56225 11645 ft 242 kts 277°
2026-05-08 15:50 40.44240 29.54032 11469 ft 241 kts 277°
2026-05-08 15:50 40.44455 29.51845 11293 ft 241 kts 277°
2026-05-08 15:50 40.44668 29.49659 11118 ft 241 kts 277°
2026-05-08 15:51 40.44879 29.47474 10943 ft 240 kts 277°
2026-05-08 15:51 40.45086 29.45301 10767 ft 240 kts 277°
2026-05-08 15:51 40.45291 29.43132 10592 ft 240 kts 277°
2026-05-08 15:51 40.45495 29.40952 10416 ft 240 kts 277°
2026-05-08 15:52 40.45701 29.38785 10241 ft 240 kts 278°
2026-05-08 15:52 40.45922 29.36615 10063 ft 240 kts 282°
2026-05-08 15:52 40.46430 29.34538 9891 ft 239 kts 293°
2026-05-08 15:52 40.47150 29.32574 9719 ft 238 kts 298°
2026-05-08 15:53 40.47947 29.30669 9546 ft 237 kts 300°
2026-05-08 15:53 40.48756 29.28790 9369 ft 235 kts 300°
2026-05-08 15:53 40.49544 29.26937 9199 ft 235 kts 300°
2026-05-08 15:53 40.50338 29.25053 9020 ft 235 kts 299°
2026-05-08 15:54 40.51128 29.23171 8845 ft 234 kts 299°
2026-05-08 15:54 40.51909 29.21298 8669 ft 234 kts 299°
2026-05-08 15:54 40.52681 29.19425 8493 ft 233 kts 299°
2026-05-08 15:54 40.53446 29.17541 8319 ft 233 kts 299°
2026-05-08 15:55 40.54205 29.15664 8146 ft 233 kts 298°
2026-05-08 15:55 40.55721 29.11895 7795 ft 233 kts 299°
2026-05-08 15:55 40.56480 29.10025 7617 ft 231 kts 299°
2026-05-08 15:56 40.57237 29.08160 7444 ft 230 kts 299°
2026-05-08 15:56 40.57994 29.06299 7272 ft 232 kts 299°
2026-05-08 15:56 40.58751 29.04432 7093 ft 231 kts 299°
2026-05-08 15:56 40.59509 29.02559 6918 ft 231 kts 299°
2026-05-08 15:57 40.60249 29.00721 6745 ft 230 kts 299°
2026-05-08 15:57 40.60999 28.98865 6571 ft 228 kts 299°
2026-05-08 15:57 40.61750 28.97011 6398 ft 229 kts 299°
2026-05-08 15:57 40.62499 28.95159 6222 ft 229 kts 299°
2026-05-08 15:58 40.63244 28.93312 6046 ft 230 kts 299°
2026-05-08 15:58 40.63994 28.91456 5906 ft 231 kts 299°
2026-05-08 15:58 40.64753 28.89575 5692 ft 231 kts 299°
2026-05-08 15:58 40.65502 28.87721 5519 ft 227 kts 299°
2026-05-08 15:59 40.66245 28.85874 5341 ft 228 kts 299°
2026-05-08 15:59 40.66984 28.84010 5144 ft 228 kts 298°
2026-05-08 15:59 40.67692 28.82145 4939 ft 228 kts 295°
2026-05-08 15:59 40.68236 28.80172 4747 ft 229 kts 289°
2026-05-08 16:00 40.68674 28.78179 4551 ft 229 kts 286°
2026-05-08 16:00 40.69074 28.76150 4361 ft 228 kts 285°
2026-05-08 16:00 40.69457 28.74135 4211 ft 227 kts 285°
2026-05-08 16:00 40.69842 28.72101 4061 ft 228 kts 285°
2026-05-08 16:01 40.70234 28.70083 3911 ft 228 kts 286°
2026-05-08 16:01 40.70631 28.68068 3790 ft 226 kts 286°
2026-05-08 16:01 40.71034 28.66044 3745 ft 227 kts 286°
2026-05-08 16:01 40.71434 28.64054 3693 ft 227 kts 286°
2026-05-08 16:02 40.71838 28.62045 3643 ft 227 kts 286°
2026-05-08 16:02 40.72243 28.60029 3594 ft 227 kts 286°
2026-05-08 16:02 40.72646 28.58019 3543 ft 227 kts 286°
2026-05-08 16:02 40.73048 28.56006 3495 ft 227 kts 286°
2026-05-08 16:03 40.73452 28.53991 3445 ft 228 kts 286°
2026-05-08 16:03 40.73853 28.51978 3396 ft 226 kts 286°
2026-05-08 16:03 40.74380 28.50026 3317 ft 226 kts 302°
2026-05-08 16:03 40.75512 28.48663 3276 ft 218 kts 332°
2026-05-08 16:04 40.76876 28.47910 3264 ft 207 kts 341°
2026-05-08 16:04 40.78220 28.47346 3205 ft 199 kts 344°
2026-05-08 16:04 40.79558 28.47077 3109 ft 192 kts
2026-05-08 16:04 40.80785 28.47571 3174 ft 178 kts 21°
2026-05-08 16:05 40.81920 28.48237 3149 ft 179 kts 24°
2026-05-08 16:05 40.83049 28.48931 3098 ft 180 kts 25°
2026-05-08 16:05 40.83947 28.50057 3032 ft 179 kts 53°
2026-05-08 16:05 40.84533 28.51494 3048 ft 180 kts 62°
2026-05-08 16:06 40.85080 28.52997 3007 ft 181 kts 63°
2026-05-08 16:06 40.85632 28.54488 3001 ft 181 kts 62°
2026-05-08 16:06 40.86205 28.55971 2999 ft 180 kts 61°
2026-05-08 16:06 40.86802 28.57437 3002 ft 181 kts 60°
2026-05-08 16:07 40.87418 28.58895 2951 ft 182 kts 59°
2026-05-08 16:07 40.88044 28.60345 2850 ft 179 kts 59°
2026-05-08 16:07 40.88644 28.61734 2726 ft 169 kts 59°
2026-05-08 16:07 40.89214 28.63073 2621 ft 167 kts 59°
2026-05-08 16:08 40.89777 28.64411 2527 ft 169 kts 59°
2026-05-08 16:08 40.90339 28.65768 2421 ft 169 kts 59°
2026-05-08 16:08 40.90896 28.67154 2321 ft 172 kts 60°
2026-05-08 16:08 40.91463 28.68561 2229 ft 174 kts 59°
2026-05-08 16:09 40.92052 28.69981 2166 ft 179 kts 59°
2026-05-08 16:09 40.92458 28.70934 1943 ft 179 kts 59°
2026-05-08 16:09 40.93261 28.72797 1584 ft 166 kts 60°
2026-05-08 16:09 40.93636 28.73678 1466 ft 167 kts 60°
2026-05-08 16:10 40.94191 28.75040 1194 ft 169 kts 62°
2026-05-08 16:10 40.94913 28.76842 885 ft 164 kts 62°
2026-05-08 16:10 40.95439 28.78121 656 ft 154 kts 61°
2026-05-08 16:10 40.95941 28.79349 436 ft 149 kts 62°
2026-05-08 16:11 40.96259 28.80145 337 ft 146 kts 62°
2026-05-08 16:11 40.96744 28.81286 174 ft 132 kts 63°
2026-05-08 16:11 40.97092 28.82133 174 ft 73 kts 60°
2026-05-08 16:11 40.97227 28.82450 174 ft 24 kts 62°
2026-05-08 16:12 40.97336 28.82560 174 ft 15 kts 16°
2026-05-08 16:12 40.97432 28.82597 174 ft 15 kts 16°
2026-05-08 16:12 40.97531 28.82630 174 ft 9 kts
2026-05-08 16:12 40.97605 28.82618 174 ft 12 kts 349°
2026-05-08 16:13 40.97644 28.82549 174 ft 12 kts 268°
2026-05-08 16:13 40.97592 28.82465 174 ft 14 kts 202°
2026-05-08 16:13 40.97540 28.82385 174 ft 10 kts 259°
2026-05-08 16:13 40.97523 28.82273 174 ft 14 kts 257°
2026-05-08 16:14 40.97500 28.82143 174 ft 16 kts 257°
2026-05-08 16:14 40.97472 28.81983 174 ft 19 kts 257°
2026-05-08 16:14 40.97447 28.81838 174 ft 14 kts 257°
2026-05-08 16:14 40.97423 28.81698 174 ft 17 kts 257°
2026-05-08 16:15 40.97401 28.81536 174 ft 14 kts 269°
2026-05-08 16:15 40.97390 28.81444 174 ft 12 kts 265°
2026-05-08 16:15 40.97393 28.81333 174 ft 12 kts 275°
2026-05-08 16:15 40.97407 28.81236 174 ft 9 kts 316°
2026-05-08 16:16 40.97468 28.81227 174 ft 12 kts
2026-05-08 16:16 40.97568 28.81230 174 ft 17 kts
2026-05-08 16:16 40.97697 28.81233 174 ft 16 kts
2026-05-08 16:16 40.97818 28.81238 174 ft 19 kts
2026-05-08 16:17 40.97947 28.81242 174 ft 20 kts
2026-05-08 16:17 40.98079 28.81246 174 ft 20 kts
2026-05-08 16:17 40.98232 28.81251 174 ft 24 kts
2026-05-08 16:17 40.98386 28.81256 174 ft 18 kts
2026-05-08 16:18 40.98525 28.81260 174 ft 19 kts
2026-05-08 16:18 40.98638 28.81264 174 ft 18 kts
2026-05-08 16:18 40.98730 28.81270 174 ft 12 kts 19°
2026-05-08 16:18 40.98744 28.81345 174 ft 8 kts 89°
2026-05-08 16:19 40.98744 28.81450 174 ft 15 kts 89°
2026-05-08 16:19 40.98745 28.81541 174 ft 9 kts 89°
2026-05-08 16:19 40.98776 28.81584 174 ft 5 kts
2026-05-08 16:19 40.98829 28.81590 174 ft 6 kts 35°
2026-05-08 16:20 40.98832 28.81620 174 ft 5 kts 89°
2026-05-08 16:20 40.98833 28.81644 174 ft 0 kts 89°